This demonstration page uses our WeatherBlox Daily Observations layout. Learn more.

Left ArrowRight Arrow

Hourly Observations for August 8, 2015

Temp ( °F °C ) Dew Point ( °F °C ) Humidity (%) Winds ( mph kmh ) Pressure ( in mb ) Visibility ( mi km ) Precip ( " mm )
12:54 am 00:54 Clear 79 26.1 70 21.1 74 74 SE 8 13 29.83 1010 10 16.0934 0 0
1:06 am 01:06 Clear with Nearby Thunderstorms 81 27 72 22 74 74 W 14 22 29.88 1012 10 16.0934 0 0
1:35 am 01:35 Partly Cloudy with Light Rain 79 26 72 22 79 79 WNW 7 11 29.91 1013 10 16.0934 0 0
1:51 am 01:51 Mostly Cloudy with Nearby Thunderstorms 77 25 73 23 89 89 W 14 22 29.91 1013 7 11.26538 0 0.0254
1:54 am 01:54 Mostly Cloudy with Nearby Thunderstorms 76 24.4 72 22.2 88 88 W 15 24 29.94 1014 4 6.43736 0.01 0.254
2:31 am 02:31 Partly Cloudy with Light Rain 73 22.8 69 20.6 87 87 W 15 24 29.97 1015 6 9.65604 0.1 2.54
2:38 am 02:38 Partly Cloudy with Nearby Thunderstorms 73 23 70 21 89 89 WSW 16 26 29.97 1015 6 9.65604 0 0
2:47 am 02:47 Mostly Cloudy with Thunderstorms 72 22 70 21 94 94 W 9 15 29.94 1014 4 6.43736 0 0
2:54 am 02:54 Mostly Cloudy with Thunderstorms 71 21.7 68 20 90 90 WSW 3 6 29.93 1013 4 6.43736 0.17 4.318
3:54 am 03:54 Mostly Cloudy with Rain 70 21.1 68 20 93 93 SSE 8 13 29.91 1013 5 8.0467 0.12 3.048
4:54 am 04:54 Cloudy with Light Rain 69 20.6 67 19.4 93 93 S 6 9 29.87 1012 9 14.48406 0.04 1.016
5:54 am 05:54 Clear 69 20.6 65 18.3 87 87 SSE 6 9 29.83 1010 10 16.0934 0.02 0.508
6:54 am 06:54 Sunny 71 21.7 63 17.2 76 76 SSE 15 24 29.79 1009 10 16.0934 0 0
7:54 am 07:54 Sunny 71 21.7 64 17.8 79 79 S 10 17 29.8 1009 10 16.0934 0 0
8:54 am 08:54 Sunny 74 23.3 63 17.2 69 69 S 6 9 29.83 1010 10 16.0934 0 0
9:54 am 09:54 Sunny 76 24.4 62 16.7 62 62 ESE 6 9 29.83 1010 10 16.0934 0 0
10:54 am 10:54 Sunny 78 25.6 63 17.2 60 60 NE 5 7 29.85 1011 10 16.0934 0 0
11:54 am 11:54 Sunny 81 27.2 64 17.8 57 57 SE 6 9 29.86 1011 10 16.0934 0 0
12:54 pm 12:54 Sunny 83 28.3 64 17.8 53 53 E 5 7 29.85 1011 10 16.0934 0 0
1:54 pm 13:54 Partly Cloudy 85 29.4 67 19.4 55 55 SSE 9 15 29.82 1010 10 16.0934 0 0
2:54 pm 14:54 Sunny 87 30.6 69 20.6 55 55 SE 8 13 29.82 1010 10 16.0934 0 0
3:54 pm 15:54 Sunny 88 31.1 70 21.1 55 55 VRB 5 7 29.8 1009 10 16.0934 0 0
4:54 pm 16:54 Partly Cloudy 88 31.1 71 21.7 57 57 ESE 3 6 29.8 1009 10 16.0934 0 0
5:54 pm 17:54 Mostly Cloudy 85 29.4 72 22.2 65 65 ESE 7 11 29.81 1010 10 16.0934 0 0
6:54 pm 18:54 Cloudy 84 28.9 73 22.8 70 70 E 7 11 29.81 1009 10 16.0934 0 0
7:54 pm 19:54 Mostly Cloudy 83 28.3 74 23.3 74 74 E 7 11 29.81 1009 10 16.0934 0 0
8:54 pm 20:54 Mostly Clear 81 27.2 74 23.3 79 79 E 8 13 29.8 1009 10 16.0934 0 0
9:54 pm 21:54 Mostly Cloudy 81 27.2 75 23.9 82 82 E 7 11 29.79 1009 10 16.0934 0 0
10:54 pm 22:54 Mostly Cloudy 80 26.7 75 23.9 85 85 E 5 7 29.8 1009 9 14.48406 0 0
11:54 pm 23:54 Cloudy 80 26.7 74 23.3 82 82 SE 10 17 29.78 1009 10 16.0934 0 0

Powered by AerisWeather